Terug naar catalogus

STARLINK-4567

ActiefCommunicatieVLEO
NORAD 53970·PAYLOAD·🇺🇸 United States

Gelanceerd Oct 5, 2022 vanaf Vandenberg Space Force Base

Loading…

Volgende Passages (komende 24 uur)

TLE

VersSource: CelesTrak SupGP

Epoch: Sep 15, 2026, 01:52 UTC

1 53970C 22125G   26258.07826389 -.00007915  00000+0 -22639-3 0  2588
2 53970  53.1582  77.5206 0001173  80.6031  51.7428 15.35412695    16

Volg STARLINK-4567 in realtime met AllMySat

Download on the App Store